Andrews Air Force Base, MD

6:56 PM EST on February 07, 2016 (GMT -0500)
Andrews Air Force Base-Naf

Weather History for KADW - December, 2012

Change the Weather History Date:

Sunday, December 2, 2012

  Actual Average Record
Temperature  
Mean Temperature 44 °F -  
Max Temperature 59 °F 50 °F 107 °F (1997)
Min Temperature 30 °F 31 °F 23 °F (2000)
Degree Days  
Heating Degree Days 20    
Moisture  
Dew Point 35 °F    
Average Humidity 94    
Maximum Humidity 100    
Minimum Humidity 62    
Precipitation  
Precipitation 0.00 in - - ()
Sea Level Pressure  
Sea Level Pressure 30.35 in    
Wind  
Wind Speed 1 mph (South)    
Max Wind Speed 15 mph    
Max Gust Speed -    
Visibility 2 miles    
Events Fog , Rain    
Averages and records for this station are not official NWS values.
T = Trace of Precipitation, MM = Missing Value Source: NWS Daily Summary

Daily Weather History Graph

Daily Weather History Graph

Search for Another Location

Airport or City:

Trip Planner

Search our weather history database for the weather conditions in past years. The results will help you decide how hot, cold, wet, or windy it might be!

Date:

Astronomy

Dec. 02, 2012 Rise Set
Actual Time 7:08 AM EST 4:45 PM EST
Civil Twilight 6:38 AM EST 5:15 PM EST
Nautical Twilight 6:05 AM EST 5:48 PM EST
Astronomical Twilight 5:33 AM EST 6:20 PM EST
Moon 8:30 PM EST (12/2) 9:57 AM EST (12/2)
Length of Visible Light 10h 36m
Length of Day
9h 37m
Waning Gibbous, 86% of the Moon is Illuminated
Dec 2
Waning Gibbous
Dec 6
Last Quarter
Dec 13
New
Dec 20
First Quarter
Dec 28
Full

Hourly Weather History & Observations

Time (EST) Temp. Windchill Dew Point Humidity Pressure Visibility Wind Dir Wind Speed Gust Speed Precip Events Conditions
12:02 AM 33.8 °F - 32.0 °F 93% 30.41 in 2.5 mi Calm Calm - N/A   Clear
12:04 AM 33.8 °F - 32.0 °F 93% 30.41 in 1.8 mi Calm Calm - N/A   Clear
12:06 AM 33.8 °F - 32.0 °F 93% 30.41 in 1.2 mi Calm Calm - N/A   Clear
12:07 AM 33.8 °F - 32.0 °F 93% 30.41 in 0.8 mi Calm Calm - N/A   Clear
12:09 AM 33.8 °F - 33.8 °F 100% 30.41 in 0.5 mi Calm Calm - N/A Fog Fog
12:11 AM 33.8 °F - 33.8 °F 100% 30.41 in 0.5 mi Calm Calm - N/A Fog Fog
12:13 AM 33.8 °F - 33.8 °F 100% 30.40 in 0.2 mi Calm Calm - N/A Fog Fog
12:14 AM 33.8 °F - 33.8 °F 100% 30.40 in 0.2 mi Calm Calm - N/A Fog Fog
12:40 AM 33.8 °F - 33.8 °F 100% 30.40 in 0.2 mi Calm Calm - N/A Fog Fog
12:41 AM 33.8 °F - 33.8 °F 100% 30.40 in 0.5 mi Calm Calm - N/A Fog Fog
12:43 AM 33.8 °F - 33.8 °F 100% 30.40 in 0.5 mi Calm Calm - N/A Fog Fog
12:50 AM 33.8 °F - 33.8 °F 100% 30.40 in 2.0 mi Calm Calm - N/A   Clear
12:55 AM 34.7 °F - 34.0 °F 97% 30.40 in 2.5 mi Calm Calm - N/A   Clear
12:56 AM 35.6 °F - 33.8 °F 93% 30.40 in 2.5 mi Calm Calm - N/A   Clear
12:57 AM 35.6 °F - 33.8 °F 93% 30.40 in 3.0 mi Calm Calm - N/A   Clear
1:10 AM 32.0 °F - 30.2 °F 93% 30.40 in 1.2 mi Calm Calm - N/A   Clear
1:11 AM 32.0 °F - 30.2 °F 93% 30.40 in 1.0 mi Calm Calm - N/A   Clear
1:13 AM 32.0 °F - 32.0 °F 100% 30.40 in 0.5 mi Calm Calm - N/A Fog Fog
1:15 AM 32.0 °F - 32.0 °F 100% 30.40 in 0.2 mi Calm Calm - N/A Fog Fog
1:17 AM 32.0 °F - 32.0 °F 100% 30.40 in 0.2 mi Calm Calm - N/A Fog Fog
1:19 AM 33.8 °F - 32.0 °F 93% 30.40 in 0.2 mi Calm Calm - N/A Fog Fog
1:30 AM 33.8 °F - 33.8 °F 100% 30.40 in 0.2 mi Calm Calm - N/A Fog Fog
1:32 AM 33.8 °F - 33.8 °F 100% 30.40 in 0.5 mi Calm Calm - N/A Fog Fog
1:35 AM 33.8 °F - 33.8 °F 100% 30.40 in 0.5 mi Calm Calm - N/A Fog Fog
1:37 AM 33.8 °F - 33.8 °F 100% 30.40 in 0.8 mi Calm Calm - N/A   Clear
1:41 AM 33.8 °F - 33.8 °F 100% 30.40 in 1.5 mi Calm Calm - N/A   Clear
1:43 AM 33.8 °F - 33.8 °F 100% 30.40 in 2.0 mi Calm Calm - N/A   Clear
1:49 AM 33.8 °F - 32.0 °F 93% 30.39 in 0.5 mi Calm Calm - N/A Fog Fog
1:51 AM 33.8 °F - 32.0 °F 93% 30.39 in 0.5 mi Calm Calm - N/A Fog Fog
1:53 AM 33.8 °F - 32.0 °F 93% 30.39 in 0.5 mi Calm Calm - N/A Fog Fog
1:54 AM 33.8 °F - 32.0 °F 93% 30.39 in 0.2 mi Calm Calm - N/A Fog Fog
1:56 AM 33.8 °F - 32.0 °F 93% 30.39 in 0.2 mi Calm Calm - N/A Fog Fog
1:57 AM 33.8 °F - 32.0 °F 93% 30.39 in 0.5 mi Calm Calm - N/A Fog Fog
2:13 AM 33.8 °F - 32.0 °F 93% 30.39 in 0.5 mi Calm Calm - N/A Fog Fog
2:24 AM 33.8 °F - 33.8 °F 100% 30.39 in 0.5 mi Calm Calm - N/A Fog Fog
2:26 AM 33.8 °F - 33.8 °F 100% 30.39 in 0.5 mi Calm Calm - N/A Fog Fog
2:35 AM 33.8 °F - 33.8 °F 100% 30.39 in 0.2 mi Calm Calm - N/A Fog Fog
2:38 AM 33.8 °F - 32.0 °F 93% 30.39 in 0.2 mi Calm Calm - N/A Fog Fog
2:43 AM 33.8 °F - 33.8 °F 100% 30.39 in 0.2 mi Calm Calm - N/A Fog Fog
2:44 AM 33.8 °F - 32.0 °F 93% 30.39 in 0.5 mi Calm Calm - N/A Fog Fog
2:47 AM 33.8 °F - 32.0 °F 93% 30.39 in 0.8 mi Calm Calm - N/A   Clear
2:48 AM 33.8 °F - 32.0 °F 93% 30.39 in 1.2 mi Calm Calm - N/A   Clear
2:50 AM 33.8 °F - 32.0 °F 93% 30.39 in 3.0 mi Calm Calm - N/A   Clear
2:55 AM 32.7 °F - 31.6 °F 96% 30.39 in 8.0 mi Calm Calm - N/A   Clear
3:09 AM 32.0 °F - 30.2 °F 93% 30.38 in 4.0 mi Calm Calm - N/A   Clear
3:13 AM 32.0 °F - 30.2 °F 93% 30.38 in 3.0 mi Calm Calm - N/A   Clear
3:14 AM 32.0 °F - 32.0 °F 100% 30.38 in 2.5 mi Calm Calm - N/A   Clear
3:16 AM 32.0 °F - 32.0 °F 100% 30.38 in 1.5 mi Calm Calm - N/A   Clear
3:18 AM 32.0 °F - 32.0 °F 100% 30.38 in 1.2 mi Calm Calm - N/A   Clear
3:19 AM 32.0 °F - 32.0 °F 100% 30.38 in 1.0 mi Calm Calm - N/A   Clear
3:21 AM 32.0 °F - 32.0 °F 100% 30.38 in 0.5 mi Calm Calm - N/A Fog Fog
3:23 AM 32.0 °F - 32.0 °F 100% 30.38 in 0.2 mi Calm Calm - N/A Fog Fog
3:24 AM 32.0 °F - 32.0 °F 100% 30.38 in 0.2 mi Calm Calm - N/A Fog Fog
3:28 AM 32.0 °F - 32.0 °F 100% 30.38 in 0.2 mi Calm Calm - N/A Fog Fog
3:30 AM 32.0 °F - 32.0 °F 100% 30.38 in 0.2 mi Calm Calm - N/A Fog Fog
3:32 AM 32.0 °F - 32.0 °F 100% 30.38 in 0.2 mi Calm Calm - N/A Fog Fog
3:35 AM 32.0 °F - 32.0 °F 100% 30.38 in 0.2 mi Calm Calm - N/A Fog Fog
3:39 AM 32.0 °F - 32.0 °F 100% 30.38 in 0.5 mi Calm Calm - N/A Fog Fog
3:46 AM 32.0 °F - 32.0 °F 100% 30.38 in 0.5 mi Calm Calm - N/A Fog Fog
3:51 AM 33.8 °F - 32.0 °F 93% 30.37 in 0.5 mi Calm Calm - N/A Fog Fog
3:54 AM 33.8 °F - 32.0 °F 93% 30.37 in 0.8 mi Calm Calm - N/A   Clear
3:57 AM 33.8 °F - 32.0 °F 93% 30.37 in 1.2 mi Calm Calm - N/A   Clear
3:59 AM 33.8 °F - 32.0 °F 93% 30.37 in 2.0 mi Calm Calm - N/A   Clear
4:02 AM 32.0 °F - 32.0 °F 100% 30.37 in 3.0 mi Calm Calm - N/A   Clear
4:25 AM 33.8 °F - 32.0 °F 93% 30.37 in 2.5 mi Calm Calm - N/A   Clear
4:29 AM 32.0 °F - 30.2 °F 93% 30.37 in 2.5 mi Calm Calm - N/A   Clear
4:30 AM 32.0 °F - 30.2 °F 93% 30.37 in 1.8 mi Calm Calm - N/A   Clear
4:34 AM 30.2 °F - 28.4 °F 93% 30.37 in 0.5 mi Calm Calm - N/A Fog Light Freezing Fog
4:37 AM 30.2 °F - 30.2 °F 100% 30.37 in 0.2 mi Calm Calm - N/A Fog Light Freezing Fog
4:40 AM 32.0 °F - 30.2 °F 93% 30.37 in 0.2 mi Calm Calm - N/A Fog Light Freezing Fog
4:44 AM 32.0 °F - 30.2 °F 93% 30.37 in 0.2 mi Calm Calm - N/A Fog Light Freezing Fog
4:45 AM 32.0 °F - 30.2 °F 93% 30.37 in 0.2 mi Calm Calm - N/A Fog Light Freezing Fog
4:48 AM 32.0 °F - 32.0 °F 100% 30.37 in 0.2 mi Calm Calm - N/A Fog Fog
4:55 AM 32.5 °F - 31.8 °F 97% 30.37 in 0.2 mi Calm Calm - N/A Fog Fog
4:58 AM 32.0 °F - 32.0 °F 100% 30.36 in 0.2 mi Calm Calm - N/A Fog Fog
5:08 AM 32.0 °F 28.7 °F 30.2 °F 93% 30.36 in 0.2 mi SE 3.5 mph - N/A Fog Light Freezing Fog
5:18 AM 32.0 °F - 30.2 °F 93% 30.37 in 0.2 mi Calm Calm - N/A Fog Light Freezing Fog
5:55 AM 32.7 °F - 31.8 °F 96% 30.37 in 0.2 mi Calm Calm - N/A Fog Fog
6:11 AM 32.0 °F - 32.0 °F 100% 30.38 in 0.5 mi Calm Calm - N/A Fog Fog
6:25 AM 33.8 °F - 32.0 °F 93% 30.38 in 0.5 mi Calm Calm - N/A Fog Fog
6:27 AM 32.0 °F - 32.0 °F 100% 30.38 in 0.5 mi Calm Calm - N/A Fog Fog
6:37 AM 33.8 °F - 32.0 °F 93% 30.38 in 0.2 mi Calm Calm - N/A Fog Fog
6:54 AM 32.0 °F - 32.0 °F 100% 30.38 in 0.2 mi Calm Calm - N/A Fog Fog
6:57 AM 32.0 °F - 32.0 °F 100% 30.38 in 0.2 mi Calm Calm - N/A Fog Fog
7:55 AM 33.8 °F - 33.3 °F 98% 30.38 in 0.2 mi Calm Calm - N/A Fog Fog
8:19 AM 35.6 °F - 33.8 °F 93% 30.38 in 0.2 mi Calm Calm - N/A Fog Fog
8:32 AM 35.6 °F 32.8 °F 35.6 °F 100% 30.37 in 0.2 mi SE 3.5 mph - N/A Fog Fog
8:43 AM 37.4 °F 33.8 °F 37.4 °F 100% 30.36 in 0.2 mi SE 4.6 mph - N/A Fog Fog
8:49 AM 37.4 °F 33.8 °F 37.4 °F 100% 30.36 in 0.2 mi SSE 4.6 mph - N/A Fog Fog
8:51 AM 37.4 °F 32.8 °F 37.4 °F 100% 30.36 in 0.2 mi SSE 5.8 mph - N/A Fog Fog
8:55 AM 37.8 °F 33.3 °F 37.6 °F 99% 30.35 in 0.2 mi SE 5.8 mph - N/A Fog Fog
8:56 AM 37.4 °F 33.8 °F 37.4 °F 100% 30.35 in 0.5 mi SSE 4.6 mph - N/A Fog Fog
8:57 AM 37.4 °F 33.8 °F 37.4 °F 100% 30.35 in 0.5 mi SE 4.6 mph - N/A Fog Fog
9:04 AM 39.2 °F 34.2 °F 39.2 °F 100% 30.35 in 0.5 mi SSE 6.9 mph - N/A Fog Fog
9:05 AM 39.2 °F 34.2 °F 39.2 °F 100% 30.35 in 0.8 mi SSE 6.9 mph - N/A   Mist
9:08 AM 39.2 °F 35.0 °F 39.2 °F 100% 30.35 in 1.0 mi SSE 5.8 mph - N/A   Mist
9:11 AM 39.2 °F 35.0 °F 39.2 °F 100% 30.35 in 1.2 mi SSE 5.8 mph - N/A   Mostly Cloudy
9:13 AM 39.2 °F 35.0 °F 39.2 °F 100% 30.35 in 1.5 mi SSE 5.8 mph - N/A   Mostly Cloudy
9:16 AM 39.2 °F 35.0 °F 39.2 °F 100% 30.35 in 2.0 mi South 5.8 mph - N/A   Mostly Cloudy
9:23 AM 39.2 °F 35.0 °F 39.2 °F 100% 30.35 in 3.0 mi SSE 5.8 mph - N/A   Mostly Cloudy
9:26 AM 39.2 °F 34.2 °F 39.2 °F 100% 30.35 in 3.0 mi SSE 6.9 mph - N/A   Scattered Clouds
9:55 AM 41.4 °F 38.4 °F 41.2 °F 99% 30.35 in 8.0 mi South 4.6 mph - N/A   Partly Cloudy
10:55 AM 44.1 °F - 43.7 °F 99% 30.32 in 10.0 mi Calm Calm - N/A   Partly Cloudy
11:55 AM 48.4 °F - 47.8 °F 98% 30.27 in 10.0 mi South 8.1 mph - N/A   Partly Cloudy
12:55 PM - - - N/A% 30.24 in 10.0 mi South 8.1 mph - N/A   Clear
1:55 PM 58.3 °F - 45.1 °F 62% 30.20 in 10.0 mi SSW 15.0 mph - N/A   Clear
2:55 PM 56.8 °F - 45.3 °F 65% 30.18 in 10.0 mi SSW 13.8 mph - N/A   Clear
3:55 PM 57.0 °F - 46.2 °F 67% 30.17 in 10.0 mi South 9.2 mph - N/A   Clear
4:55 PM 55.0 °F - 46.4 °F 73% 30.17 in 10.0 mi SSW 3.5 mph - N/A   Partly Cloudy
5:11 PM 53.6 °F - 46.4 °F 77% 30.17 in 10.0 mi South 8.1 mph - N/A Rain Light Rain
5:31 PM 53.6 °F - 48.2 °F 82% 30.16 in 10.0 mi South 6.9 mph - N/A   Partly Cloudy
5:44 PM 53.6 °F - 48.2 °F 82% 30.16 in 10.0 mi SSW 5.8 mph - N/A   Scattered Clouds
5:55 PM 54.1 °F - 48.6 °F 81% 30.16 in 10.0 mi SSW 8.1 mph - 0.00 in   Partly Cloudy
6:42 PM 55.4 °F - 48.2 °F 77% 30.16 in 10.0 mi South 9.2 mph - N/A Rain Light Rain
6:55 PM 55.6 °F - 49.6 °F 80% 30.16 in 10.0 mi South 9.2 mph - 0.00 in Rain Light Rain
7:06 PM 55.4 °F - 50.0 °F 82% 30.17 in 10.0 mi South 9.2 mph - N/A   Mostly Cloudy
7:55 PM 56.5 °F - 49.6 °F 78% 30.17 in 10.0 mi South 11.5 mph - 0.00 in   Mostly Cloudy
8:55 PM 57.9 °F - 49.8 °F 74% 30.17 in 10.0 mi SSW 11.5 mph - N/A   Overcast
9:55 PM 58.1 °F - 49.6 °F 73% 30.17 in 10.0 mi SSW 11.5 mph - N/A   Overcast
10:55 PM 59.0 °F - 49.1 °F 70% 30.17 in 10.0 mi SW 10.4 mph - N/A   Overcast
11:55 PM 57.7 °F - 49.3 °F 73% 30.17 in 10.0 mi SW 8.1 mph - N/A   Mostly Cloudy